When you browse on this site, cookies collect data to enhance your experience and personalize the content and advertising you see.
Visit our Privacy Policy to learn more. By continuing to use the site, you agree to this use of cookies and data.
  • In United Kingdom
  • List of Countries
  • For 7 days
  • Water Temperature
  • Weather Map
  • Weather Widgets
  • user-avatar
    Login

    Hourly Weather Pazardzhik

    Today, 24 January, Friday

    Time Temperature Precipitation Wind Pressure Humidity
    00:00 +2°C° 0 mm 1 mps 755 mmHg 56%
    01:00 +2°C° 0 mm 1 mps 755 mmHg 54%
    02:00 +2°C° 0 mm 1 mps 755 mmHg 52%
    03:00 +2°C° 0 mm 1 mps 755 mmHg 52%
    04:00 +2°C° 0 mm 1 mps 755 mmHg 52%
    05:00 +1°C° 0 mm 0 mps 755 mmHg 53%
    06:00 +2°C° 0 mm 1 mps 755 mmHg 53%
    07:00 +2°C° 0 mm 1 mps 755 mmHg 53%
    08:00 +2°C° 0 mm 1 mps 755 mmHg 55%
    09:00 +4°C° 0 mm 1 mps 755 mmHg 50%
    10:00 +5°C° 0 mm 1 mps 755 mmHg 46%
    11:00 +7°C° 0 mm 1 mps 754 mmHg 42%
    12:00 +8°C° 0 mm 1 mps 754 mmHg 41%
    13:00 +9°C° 0 mm 1 mps 753 mmHg 41%
    14:00 +9°C° 0 mm 1 mps 753 mmHg 41%
    15:00 +8°C° 0 mm 1 mps 752 mmHg 46%
    16:00 +7°C° 0 mm 1 mps 752 mmHg 51%
    17:00 +5°C° 0 mm 0 mps 752 mmHg 56%
    18:00 +6°C° 0 mm 1 mps 752 mmHg 57%
    19:00 +5°C° 0 mm 1 mps 752 mmHg 58%
    20:00 +4°C° 0 mm 1 mps 751 mmHg 59%
    21:00 +4°C° 0 mm 1 mps 751 mmHg 57%
    22:00 +4°C° 0 mm 1 mps 751 mmHg 56%
    23:00 +4°C° 0 mm 1 mps 751 mmHg 55%

    Tomorrow, 25 January, Saturday

    Time Temperature Precipitation Wind Pressure Humidity
    00:00 +4°C° 0 mm 1 mps 751 mmHg 53%
    01:00 +4°C° 0 mm 1 mps 750 mmHg 52%
    02:00 +4°C° 0 mm 1 mps 750 mmHg 50%
    03:00 +4°C° 0 mm 1 mps 749 mmHg 49%
    04:00 +4°C° 0 mm 1 mps 749 mmHg 47%
    05:00 +5°C° 0 mm 1 mps 749 mmHg 45%
    06:00 +5°C° 0 mm 1 mps 749 mmHg 44%
    07:00 +5°C° 0 mm 1 mps 749 mmHg 42%
    08:00 +5°C° 0 mm 1 mps 749 mmHg 41%
    09:00 +7°C° 0 mm 1 mps 749 mmHg 38%
    10:00 +9°C° 0 mm 1 mps 749 mmHg 35%
    11:00 +12°C° 0 mm 1 mps 749 mmHg 32%
    12:00 +13°C° 0 mm 1 mps 748 mmHg 32%
    13:00 +13°C° 0 mm 1 mps 748 mmHg 33%
    14:00 +14°C° 0 mm 1 mps 747 mmHg 33%
    15:00 +13°C° 0 mm 1 mps 747 mmHg 39%
    16:00 +11°C° 0 mm 1 mps 747 mmHg 45%
    17:00 +9°C° 0 mm 0 mps 747 mmHg 51%
    18:00 +9°C° 0 mm 1 mps 748 mmHg 52%
    19:00 +8°C° 0 mm 1 mps 748 mmHg 54%
    20:00 +7°C° 0 mm 1 mps 748 mmHg 55%
    21:00 +7°C° 0 mm 1 mps 748 mmHg 56%
    22:00 +7°C° 0 mm 1 mps 748 mmHg 58%
    23:00 +7°C° 0 mm 1 mps 748 mmHg 59%

    Day after tomorrow, 26 January, Sunday

    Time Temperature Precipitation Wind Pressure Humidity
    00:00 +7°C° 0 mm 1 mps 748 mmHg 60%
    01:00 +7°C° 0 mm 1 mps 748 mmHg 61%
    02:00 +6°C° 0 mm 1 mps 748 mmHg 61%
    03:00 +6°C° 0 mm 1 mps 748 mmHg 62%
    04:00 +6°C° 0 mm 1 mps 748 mmHg 63%
    05:00 +6°C° 0 mm 1 mps 748 mmHg 64%
    06:00 +6°C° 0 mm 1 mps 748 mmHg 64%
    07:00 +6°C° 0 mm 1 mps 748 mmHg 64%
    08:00 +6°C° 0 mm 1 mps 748 mmHg 64%
    09:00 +8°C° 0 mm 1 mps 748 mmHg 60%
    10:00 +9°C° 0 mm 0 mps 749 mmHg 56%
    11:00 +10°C° 0 mm 0 mps 749 mmHg 52%
    12:00 +11°C° 0 mm 0 mps 748 mmHg 51%
    13:00 +12°C° 0 mm 1 mps 748 mmHg 50%
    14:00 +13°C° 0 mm 1 mps 747 mmHg 50%
    15:00 +12°C° 0 mm 1 mps 747 mmHg 55%
    16:00 +11°C° 0 mm 1 mps 747 mmHg 59%
    17:00 +10°C° 0 mm 1 mps 747 mmHg 64%
    18:00 +9°C° 0 mm 1 mps 747 mmHg 66%
    19:00 +7°C° 0 mm 0 mps 747 mmHg 68%
    20:00 +6°C° 0 mm 0 mps 747 mmHg 70%
    21:00 +6°C° 0 mm 0 mps 747 mmHg 70%
    22:00 +6°C° 0 mm 0 mps 747 mmHg 70%
    23:00 +5°C° 0 mm 0 mps 747 mmHg 70%

    27 January, Monday

    Time Temperature Precipitation Wind Pressure Humidity
    00:00 +5°C° 0 mm 0 mps 747 mmHg 71%
    01:00 +5°C° 0 mm 0 mps 746 mmHg 71%
    02:00 +5°C° 0 mm 0 mps 746 mmHg 72%
    03:00 +5°C° 0 mm 0 mps 746 mmHg 73%
    04:00 +4°C° 0 mm 0 mps 746 mmHg 74%
    05:00 +4°C° 0 mm 0 mps 745 mmHg 76%
    06:00 +4°C° 0 mm 0 mps 745 mmHg 76%
    07:00 +4°C° 0 mm 0 mps 745 mmHg 77%
    08:00 +4°C° 0 mm 0 mps 745 mmHg 77%
    09:00 +6°C° 0 mm 0 mps 745 mmHg 73%
    10:00 +7°C° 0 mm 0 mps 745 mmHg 69%
    11:00 +8°C° 0 mm 0 mps 745 mmHg 65%
    12:00 +9°C° 0 mm 0 mps 745 mmHg 65%
    13:00 +10°C° 0 mm 1 mps 744 mmHg 66%
    14:00 +10°C° 0 mm 1 mps 744 mmHg 66%
    15:00 +10°C° 0.1 mm 1 mps 743 mmHg 70%
    16:00 +8°C° 0.1 mm 0 mps 743 mmHg 74%
    17:00 +8°C° 0.1 mm 0 mps 743 mmHg 78%
    18:00 +8°C° 0.4 mm 1 mps 743 mmHg 80%
    19:00 +8°C° 0.4 mm 1 mps 743 mmHg 83%
    20:00 +8°C° 0.4 mm 1 mps 743 mmHg 86%
    21:00 +8°C° 0.1 mm 1 mps 743 mmHg 85%
    22:00 +8°C° 0.1 mm 1 mps 743 mmHg 85%
    23:00 +8°C° 0.1 mm 1 mps 743 mmHg 85%

    28 January, Tuesday

    Time Temperature Precipitation Wind Pressure Humidity
    00:00 +7°C° 0 mm 1 mps 743 mmHg 86%
    01:00 +7°C° 0 mm 1 mps 742 mmHg 86%
    02:00 +7°C° 0 mm 1 mps 742 mmHg 87%
    03:00 +6°C° 0 mm 2 mps 742 mmHg 87%
    04:00 +6°C° 0 mm 2 mps 742 mmHg 88%
    05:00 +6°C° 0 mm 2 mps 742 mmHg 88%
    06:00 +5°C° 0 mm 2 mps 742 mmHg 87%
    07:00 +5°C° 0 mm 2 mps 742 mmHg 87%
    08:00 +5°C° 0 mm 2 mps 742 mmHg 86%
    09:00 +8°C° 0 mm 1 mps 742 mmHg 78%
    10:00 +10°C° 0 mm 1 mps 742 mmHg 69%
    11:00 +11°C° 0 mm 1 mps 742 mmHg 61%
    12:00 +12°C° 0 mm 1 mps 742 mmHg 57%
    13:00 +13°C° 0 mm 1 mps 741 mmHg 53%
    14:00 +14°C° 0 mm 1 mps 741 mmHg 50%
    15:00 +13°C° 0 mm 1 mps 741 mmHg 54%
    16:00 +12°C° 0 mm 1 mps 741 mmHg 59%
    17:00 +11°C° 0 mm 1 mps 741 mmHg 63%
    18:00 +11°C° 0 mm 1 mps 741 mmHg 65%
    19:00 +10°C° 0 mm 1 mps 741 mmHg 67%
    20:00 +9°C° 0 mm 1 mps 742 mmHg 69%
    21:00 +8°C° 0 mm 1 mps 742 mmHg 69%
    22:00 +8°C° 0 mm 1 mps 742 mmHg 68%
    23:00 +8°C° 0 mm 1 mps 742 mmHg 67%

    29 January, Wednesday

    Time Temperature Precipitation Wind Pressure Humidity
    00:00 +7°C° 0 mm 1 mps 742 mmHg 66%
    01:00 +6°C° 0 mm 2 mps 742 mmHg 65%
    02:00 +6°C° 0 mm 2 mps 742 mmHg 64%
    03:00 +6°C° 0 mm 2 mps 742 mmHg 64%
    04:00 +6°C° 0 mm 2 mps 742 mmHg 63%
    05:00 +6°C° 0 mm 2 mps 741 mmHg 62%
    06:00 +6°C° 0 mm 2 mps 742 mmHg 62%
    07:00 +6°C° 0 mm 2 mps 742 mmHg 62%
    08:00 +7°C° 0 mm 1 mps 742 mmHg 62%
    09:00 +9°C° 0 mm 1 mps 742 mmHg 58%
    10:00 +11°C° 0 mm 1 mps 742 mmHg 54%
    11:00 +11°C° 0 mm 0 mps 742 mmHg 49%
    12:00 +13°C° 0 mm 1 mps 742 mmHg 48%
    13:00 +14°C° 0 mm 1 mps 742 mmHg 46%
    14:00 +15°C° 0 mm 1 mps 741 mmHg 44%
    15:00 +14°C° 0 mm 1 mps 741 mmHg 49%
    16:00 +13°C° 0 mm 1 mps 741 mmHg 54%
    17:00 +12°C° 0 mm 1 mps 741 mmHg 59%
    18:00 +11°C° 0 mm 1 mps 741 mmHg 63%
    19:00 +10°C° 0 mm 1 mps 741 mmHg 66%
    20:00 +9°C° 0 mm 1 mps 742 mmHg 69%
    21:00 +9°C° 0 mm 1 mps 742 mmHg 70%
    22:00 +9°C° 0 mm 1 mps 742 mmHg 70%
    23:00 +8°C° 0 mm 1 mps 742 mmHg 71%
    Show more